SCP
0 0 0 0 0 0 0 0 0 0 0 -0 0 0 0 0 0 0 0 0 0 0 0 0 0 0 0 0 0 0 0 0 0 0 0 0 0 0 0 0 0 0 0 0 0 0 0 0 0
0 0 0 0 0 0 0 0 0 0 0 -0 0 0 0 0 0 0 0 0 0 0 0 0 0 0 0 0 0 0 0 0 0 0 0 0 0 0 0 0 0 0 0 0 0 0 0 0 0
0 0 0 0 0 0 0 0 0 0 0 -0 0 0 0 0 0 0 0 0 0 0 0 0 0 0 0 0 0 0 0 0 0 0 0 0 0 0 0 0 0 0 0 0 0 0 0 0 0
0 0 0 0 0 0 0 0 0 0 0 0 0 0 0 0 0 0 0 0 0 0 0 0 0 0 0 0 0 0 0 0 0 0 0 0 0 0 0 0 0 0 0 0 0 0 0 0 0
0 0 0 0 0 0 0 0 0 0 0 0 0 0 0 0 0 0 0 0 0 0 0 0 0 0 0 0 0 0 0 0 0 0 0 0 0 0 0 0 0 0 0 0 0 0 0 0 0
0 0 0 0 0 0 0 0 0 0 0 0 0 0 0 0 0 0 0 0 0 0 0 0 0 0 0 0 0 0 0 0 0 0 0 0 0 0 0 0 0 0 0 0 0 0 0 0 0
0 0 0 0 0 0 0 0 0 0 0 0 0 0 0 0 0 0 0 0 0 0 0 0 0 0 0 0 0 0 0 0 0 0 0 0 0 0 0 0 0 0 0 0 0 0 0 0 0
0 0 0 0 0 0 0 0 0 0 0 0 0 0 0 0 0 0 0 0 0 0 0 0 0 0 0 0 0 0 0 0 0 0 0 0 0 0 0 0 0 0 0 0 0 0 0 0 0
0 0 0 0 0 0 0 0 0 0 0 0 0 0 0 0 0 0 0 0 0 0 0 0 0 0 0 0 0 0 0 0 0 0 0 0 0 0 0 0 0 0 0 0 0 0 0 0 0
0 0 0 0 0 0 0 0 0 0 0 0 0 0 0 0 0 0 0 0 0 0 0 0 0 0 0 0 0 0 0 0 0 0 0 0 0 0 0 0 0 0 0 0 0 0 0 0 0
0 0 0 0 0 0 0 0 0 0 0 0 0 0 0 0 0 0 0 0 0 0 0 0 0 0 0 0 0 0 0 0 0 0 0 0 0 0 0 0 0 0 0 0 0 0 0 0 0
0 0 0 0 0 0 0 0 0 0 0 0 0 0 0 0 0 0 0 0 0 0 0 0 0 0 0 0 0 0 0 0 0 0 0 0 0 0 0 0 0 0 0 0 0 0 0 0 0
0 0 0 0 0 0 0 0 0 0 0 0 0 0 0 0 0 0 0 0 0 0 0 0 0 0 1 1 1 1 1 0 0 0 0 0 0 0 0 0 0 0 0 0 0 0 0 0 0
0 0 0 0 0 0 0 0 0 0 0 0 0 0 0 0 0 0 0 0 0 0 0 0 0 0 1 1 1 1 1 1 1 1 0 0 0 0 0 0 0 0 0 0 0 0 0 0 0
0 0 0 0 0 0 0 0 0 0 0 0 0 0 0 0 0 0 0 0 0 0 0 0 1 1 1 1 1 1 1 1 1 1 1 0 0 0 0 0 0 0 0 0 0 0 0 0 0
0 0 0 0 0 0 0 0 0 0 0 0 0 0 0 0 0 0 0 0 0 0 0 1 1 1 1 1 1 1 1 1 1 1 1 0 0 0 0 0 0 0 0 0 0 0 0 0 0
0 0 0 0 0 0 0 0 0 0 0 0 0 0 0 0 0 0 0 0 0 0 0 1 1 1 0 0 0 1 1 1 1 1 1 0 0 0 0 0 0 0 0 0 0 0 0 0 0
0 0 0 0 0 0 0 0 0 0 0 0 0 0 0 0 0 0 0 0 0 0 0 0 1 1 0 0 0 0 0 0 1 1 0 0 0 0 0 0 0 0 0 0 0 0 0 0 0
0 0 0 0 0 0 0 0 0 0 0 0 0 0 0 0 0 0 0 0 0 0 0 0 0 0 0 0 0 0 0 0 0 0 0 0 0 0 0 0 0 0 0 0 0 0 0 0 0
0 0 0 0 0 0 0 0 0 0 0 0 0 0 0 0 0 0 0 0 0 0 0 0 0 0 0 0 0 0 0 0 0 0 0 0 0 0 0 0 0 0 0 0 0 0 0 0 0
0 0 0 0 0 0 0 0 0 0 0 0 0 0 0 0 0 0 0 0 0 0 0 0 0 0 0 0 0 0 0 0 0 0 0 0 0 0 0 0 0 0 0 0 0 0 0 0 0
0 0 0 0 0 0 0 0 0 0 0 0 0 0 0 0 0 0 0 0 0 0 0 0 0 0 0 0 0 0 0 0 0 0 0 0 0 0 0 0 0 0 0 0 0 0 0 0 0
0 0 0 0 0 0 0 0 0 0 0 0 0 0 0 0 0 0 0 0 0 0 0 0 0 0 0 0 0 0 0 0 0 0 0 0 0 0 0 0 0 0 0 0 0 0 0 0 0
0 0 0 0 0 0 0 0 0 0 0 0 0 0 0 0 0 0 0 0 0 0 0 0 0 0 0 0 0 0 0 0 0 0 0 0 0 0 0 0 0 0 0 0 0 0 0 0 0
0 0 0 0 0 0 0 0 0 0 0 0 0 0 0 0 0 0 0 0 0 0 0 0 0 0 0 0 0 0 0 0 0 0 0 0 0 0 0 0 0 0 0 0 0 0 0 0 0
0 0 0 0 0 0 0 0 0 0 0 0 0 0 0 0 0 0 0 0 0 0 0 0 0 0 0 0 0 0 0 0 0 0 0 0 0 0 0 0 0 0 0 0 0 0 0 0 0
0 0 0 0 0 0 0 0 0 0 0 0 0 0 0 0 0 0 0 0 0 0 0 0 0 0 0 0 0 0 0 0 0 0 0 0 0 0 0 0 0 0 0 0 0 0 0 0 0
0 0 0 0 0 0 0 0 0 0 0 0 0 0 0 0 0 0 0 0 0 0 0 0 0 0 0 0 0 0 0 0 0 0 0 0 0 0 0 0 0 0 0 0 0 0 0 0 0
0 0 0 0 0 0 0 0 0 0 0 0 0 0 0 0 0 0 0 0 0 0 0 0 0 0 0 0 0 0 0 0 0 0 0 0 0 0 0 0 0 0 0 0 0 0 0 0 0
0 0 0 0 0 0 0 0 0 0 0 0 0 0 0 0 0 0 0 0 0 0 0 0 0 0 0 0 0 0 0 0 0 0 0 0 0 0 0 0 0 0 0 0 0 0 0 0 0
Wind_Speed
9 8 5 3 3 3 4 5 6 5 5 6 6 5 6 9 6 8 6 11 13 13 13 11 10 12 12 12 12 12 13 13 13 13 14 14 14 14 13 14 16 18 20 20 20 20 20 19 19
7 5 4 3 4 2 5 6 6 5 7 5 3 1 1 7 7 8 7 11 13 14 12 11 11 12 13 12 12 12 13 13 13 14 14 14 14 14 14 15 17 19 20 20 20 19 19 19 18
6 5 4 3 3 4 6 6 8 8 6 3 3 1 4 7 8 7 7 11 12 12 11 13 13 13 13 13 12 12 13 13 13 14 14 14 14 14 15 17 18 19 19 19 19 19 19 18 17
4 4 4 4 2 7 6 6 11 7 4 0 1 4 5 5 4 8 9 10 11 11 12 13 13 13 14 13 12 12 13 13 14 14 14 14 14 15 16 17 18 18 18 19 18 18 18 17 17
3 3 4 4 1 6 5 5 8 7 6 5 2 2 7 4 6 9 8 9 10 10 12 13 13 13 13 13 13 13 13 13 14 14 14 14 15 15 16 17 18 18 18 18 18 18 18 17 16
3 3 4 3 5 6 5 3 4 5 5 6 2 1 6 6 7 7 7 7 9 9 11 11 11 12 12 12 12 12 13 13 14 14 14 15 15 15 16 17 17 18 18 18 18 18 17 17 17
3 3 5 5 3 4 6 4 3 3 5 6 2 2 7 6 7 7 7 6 8 9 11 9 9 10 11 12 12 11 12 12 13 14 14 13 13 15 15 16 17 17 18 18 18 18 17 17 17
3 3 5 4 1 3 7 5 1 1 3 4 1 1 6 9 9 6 5 5 7 8 9 10 9 9 8 8 11 12 12 12 12 13 12 13 13 13 13 12 16 17 17 17 17 17 17 16 16
2 2 5 4 1 2 9 5 3 3 4 3 2 4 4 14 11 7 4 3 5 7 7 9 9 9 9 9 10 11 11 12 12 11 14 12 8 8 8 11 14 16 17 17 17 17 16 14 13
2 3 7 4 4 4 7 5 7 3 4 5 4 5 4 11 10 9 8 8 7 7 7 7 8 8 8 8 9 7 7 8 8 8 9 6 6 6 9 11 13 14 15 16 16 15 11 8 5
4 4 4 3 7 4 3 3 5 5 6 7 10 12 9 10 10 10 10 10 8 8 7 7 7 7 7 6 7 5 5 6 7 9 8 5 6 7 7 5 7 8 9 6 7 5 4 5 4
3 1 3 4 4 2 1 1 2 6 3 5 5 12 12 12 12 13 12 11 9 9 9 8 7 7 7 6 6 6 5 6 6 8 8 6 5 6 6 5 5 5 3 4 3 4 6 6 6
5 1 2 4 2 1 3 3 4 6 7 6 5 9 11 12 11 10 9 9 10 10 10 10 8 7 7 6 5 6 6 7 7 7 7 8 7 7 7 6 5 5 4 4 5 5 6 6 6
1 1 3 4 4 2 2 5 4 7 6 7 8 7 9 11 11 10 10 11 11 11 11 11 10 8 7 6 5 5 5 6 6 7 9 10 8 7 7 6 5 5 5 5 5 6 6 5 5
1 1 4 6 5 3 1 7 8 9 6 5 7 8 9 10 11 11 12 12 11 10 10 10 10 9 8 7 7 5 5 5 5 6 9 10 9 9 8 7 6 5 5 7 6 7 6 6 6
3 3 4 6 6 4 3 8 5 3 7 7 7 8 10 11 11 10 11 11 10 10 10 10 9 10 10 8 7 5 4 5 5 6 7 10 10 10 8 7 7 7 7 6 7 7 6 6 5
5 5 7 5 6 5 6 7 2 3 3 5 7 8 9 9 11 11 11 11 11 11 11 11 11 11 10 8 6 6 5 5 5 5 6 8 10 11 10 8 8 9 7 7 8 6 7 8 6
5 7 7 6 7 5 6 9 8 4 7 8 8 8 8 9 10 10 11 11 10 10 11 11 11 11 9 7 5 4 5 5 4 5 6 8 8 11 10 9 10 10 9 8 8 8 6 7 7
4 5 4 2 5 3 7 10 10 9 8 9 9 9 9 10 10 10 12 12 10 10 11 12 12 12 10 8 8 7 7 5 4 5 6 8 9 11 11 9 11 11 10 11 11 10 10 7 8
2 4 6 3 4 2 6 12 11 11 12 11 11 10 10 10 9 10 11 12 13 13 12 11 12 13 12 10 8 6 5 5 5 4 6 8 9 11 11 13 12 12 10 11 10 12 8 6 7
5 6 7 6 2 4 4 10 11 12 15 12 10 9 9 10 10 9 10 11 12 13 13 12 12 12 12 10 6 4 4 3 5 7 7 8 10 11 11 14 13 14 13 13 15 16 12 10 8
6 5 6 4 3 4 4 7 6 6 6 9 8 8 10 11 10 9 8 10 11 12 10 10 10 10 10 10 9 10 9 10 10 7 6 7 9 10 12 13 14 15 13 14 16 16 9 13 11
2 4 2 1 3 5 4 6 9 6 7 8 9 10 10 9 8 7 7 8 9 10 10 9 9 9 10 10 11 10 9 8 5 5 7 8 8 9 11 13 13 14 13 15 15 14 10 10 11
7 4 3 1 2 7 8 9 9 7 10 8 9 7 4 2 0 1 2 3 4 6 7 8 9 9 9 10 10 11 10 8 6 7 8 8 6 7 10 11 13 13 12 14 15 16 14 12 11
5 5 2 3 4 9 7 9 9 6 3 3 2 1 1 1 1 2 2 2 3 5 6 6 7 8 8 9 9 10 9 9 9 7 8 8 7 7 10 10 11 11 11 13 13 14 14 12 12
8 8 9 8 6 5 3 10 8 1 1 1 2 5 5 3 2 3 3 4 4 6 7 7 7 7 8 9 9 8 8 7 7 8 7 8 8 8 9 11 11 11 12 13 13 11 12 11 11
8 9 6 3 3 5 8 8 4 2 2 5 7 6 4 3 3 4 4 4 4 5 6 7 7 7 7 8 8 8 8 8 8 7 7 6 7 7 10 11 11 11 12 13 13 11 13 11 11
2 5 4 5 6 7 9 9 7 6 11 9 5 4 3 1 0 1 2 3 3 4 4 5 6 7 7 7 7 7 8 8 7 7 8 7 8 8 10 11 11 11 11 12 12 10 11 12 11
6 4 6 6 6 7 7 9 3 3 4 3 1 2 3 2 1 0 1 2 3 3 3 4 5 6 7 7 7 8 8 7 8 8 8 7 7 8 10 11 11 11 11 11 12 11 12 14 12
8 10 9 6 7 4 5 11 3 6 5 4 2 0 1 1 1 0 2 2 3 3 4 5 6 7 7 7 7 8 8 8 9 9 8 8 8 8 9 10 10 11 11 11 12 13 13 14 15
Wind_Direction
292 267 261 264 255 238 93 88 90 89 86 51 42 16 16 39 35 102 140 138 132 130 132 137 130 125 120 114 109 104 99 95 92 90 89 88 87 87 86 86 89 89 87 83 81 79 77 77 77
295 292 268 246 258 266 104 114 116 97 81 83 72 352 356 83 82 110 135 133 132 132 139 141 134 130 126 121 116 109 103 99 96 94 93 92 91 89 88 89 91 89 87 85 83 81 80 79 77
273 263 262 256 271 22 77 110 110 88 95 128 142 353 22 84 112 127 131 135 133 135 136 134 139 136 132 127 121 114 107 103 100 98 96 95 94 91 89 89 89 88 88 87 86 84 82 80 76
270 236 243 260 324 63 52 99 109 115 115 351 152 130 86 46 76 116 134 141 137 134 130 139 143 142 138 134 128 120 114 108 105 103 101 99 98 95 92 91 91 91 91 89 88 86 83 79 75
231 257 248 262 64 83 68 74 120 142 158 162 247 110 107 87 79 117 146 147 138 134 130 144 144 144 142 139 134 127 120 115 111 109 107 105 103 100 98 96 96 95 94 92 90 88 84 79 73
253 263 267 264 97 98 108 111 147 165 136 122 187 151 101 127 140 147 153 145 139 131 129 142 144 146 146 144 139 133 127 123 119 116 113 111 108 106 104 102 101 100 99 97 94 91 87 82 74
267 267 282 305 89 128 120 136 180 174 144 145 175 136 118 149 146 146 148 153 142 132 132 143 150 151 149 148 144 140 134 129 126 121 116 111 109 108 106 105 106 105 103 101 98 94 90 83 75
306 282 269 279 292 120 126 141 158 216 107 76 39 325 135 151 133 137 150 161 140 137 145 152 158 158 156 153 150 146 141 135 128 121 116 110 108 106 105 106 110 110 108 106 102 97 91 82 73
288 276 273 272 290 103 130 149 116 25 90 113 86 55 68 127 129 138 149 167 145 150 158 159 163 163 163 161 158 152 146 139 133 130 130 127 123 118 111 113 114 114 113 111 107 103 96 83 68
210 235 255 318 23 62 137 170 147 166 191 172 152 116 113 131 147 162 173 182 174 172 174 167 168 167 165 166 158 163 157 152 151 150 157 152 139 124 116 112 114 116 116 116 116 116 110 92 68
217 235 274 40 44 26 128 194 164 186 215 202 187 166 163 160 171 182 187 190 186 180 179 177 174 170 167 161 164 170 165 167 167 166 179 143 121 122 121 117 112 115 122 119 126 109 74 68 63
268 263 14 51 54 3 321 202 205 214 230 65 60 150 161 176 187 193 192 191 187 188 187 186 180 173 172 169 173 169 168 174 173 175 173 146 142 145 146 146 150 158 142 138 108 89 84 78 70
249 171 87 83 120 334 342 264 242 240 227 132 100 129 169 186 196 199 195 191 189 193 188 184 185 180 178 178 181 176 174 177 176 173 171 161 157 160 156 158 160 160 140 133 117 110 104 93 83
278 161 152 163 175 174 248 263 239 245 234 169 152 171 189 193 197 195 194 196 197 194 191 182 186 188 184 184 187 183 179 175 174 173 176 171 166 165 161 157 159 152 146 136 129 124 110 99 94
339 240 209 197 195 170 239 270 233 230 208 189 185 196 207 205 197 200 199 198 198 194 189 184 185 188 190 191 194 192 182 174 176 175 178 176 170 168 163 159 159 151 140 132 126 118 111 110 103
210 225 234 194 174 146 192 264 258 206 181 203 217 216 210 210 203 204 202 196 195 190 189 187 182 189 194 193 194 193 190 181 179 176 179 180 174 169 163 162 161 152 145 141 137 136 132 122 118
200 229 230 176 171 162 205 257 257 104 159 227 241 237 222 209 205 205 203 197 193 191 187 187 184 189 194 193 192 193 191 189 181 177 179 182 177 171 167 167 163 156 152 149 149 146 144 135 125
204 217 231 203 163 184 224 256 272 214 197 224 237 240 232 222 213 203 200 200 192 191 187 187 185 188 189 187 191 194 197 194 184 183 183 181 179 174 168 166 164 161 157 157 155 150 142 134 131
331 323 288 85 113 186 245 260 261 258 237 231 232 235 238 232 222 205 195 190 187 188 189 187 188 187 186 190 193 196 201 193 190 193 188 183 181 177 172 167 166 168 170 168 162 150 144 140 134
259 288 297 308 118 186 270 272 265 254 249 239 237 236 236 241 232 213 195 183 186 191 193 192 193 189 190 196 193 190 186 192 194 190 197 191 185 181 177 172 172 173 170 164 163 155 147 159 169
232 235 252 267 171 207 271 285 247 240 233 235 235 240 246 244 242 226 199 189 186 191 194 197 197 194 192 188 175 172 176 176 189 199 202 197 189 185 182 178 175 176 175 176 173 172 164 170 191
241 237 231 278 321 279 204 285 281 273 235 218 226 235 243 245 242 234 209 196 191 193 189 192 195 195 190 184 186 184 192 200 203 195 193 191 191 190 187 182 181 181 181 181 182 183 179 169 179
167 49 68 215 248 274 236 257 268 251 251 231 225 231 237 240 235 226 209 194 190 182 180 186 190 196 192 189 191 195 204 207 191 181 186 192 195 197 192 187 186 187 186 184 184 187 185 181 183
123 103 87 169 231 254 210 229 264 216 222 221 221 224 234 251 304 66 84 112 141 156 169 177 187 197 195 194 194 199 205 203 203 196 190 191 193 201 201 194 192 191 190 187 188 189 192 192 190
150 149 174 227 223 246 196 220 249 207 187 180 196 249 319 31 57 84 107 131 157 162 170 178 188 199 196 195 199 202 205 204 211 206 192 186 189 202 206 201 199 195 193 190 187 190 196 194 194
196 187 175 194 223 265 226 235 252 142 99 31 267 260 265 255 230 217 210 197 189 184 179 183 194 202 196 198 203 203 204 209 216 211 196 194 198 202 199 204 205 199 193 191 189 191 196 197 199
173 220 219 227 273 294 260 259 282 144 252 261 260 264 272 261 233 218 213 207 191 186 188 191 196 202 202 200 201 207 209 212 216 214 202 194 193 191 193 200 204 200 195 193 189 193 195 196 199
223 178 157 186 201 240 263 247 239 223 227 237 259 291 313 334 233 187 202 198 187 179 183 190 198 203 204 201 204 209 213 215 215 213 212 202 193 186 186 192 200 201 198 195 192 192 193 196 198
179 204 193 187 182 189 259 261 203 146 150 150 124 36 8 355 344 212 185 168 166 168 178 195 206 207 206 206 208 210 214 214 214 215 214 205 195 187 186 188 194 198 199 196 196 195 191 196 195
202 201 192 192 225 213 236 262 119 91 94 104 99 341 309 311 298 231 156 164 186 207 211 210 211 215 214 207 208 214 213 213 216 219 213 203 200 193 187 185 192 197 198 198 199 196 193 195 194